Temp
-1 -1 -2 -3 -3 -3 -3 -3 -3 -1 -0 -2 -4 -5 -6 -7 -8 -8 -9 -10 -11 -11 -11 -11 -11 -11 -11 -11 -12 -14 -15 -15 -15 -14 -13 -13 -14 -13
-2 -3 -3 -3 -4 -4 -4 -5 -5 -5 -3 -5 -5 -7 -8 -9 -9 -10 -11 -12 -12 -12 -13 -13 -13 -13 -13 -13 -13 -13 -13 -14 -14 -15 -15 -15 -14 -14
-3 -3 -4 -4 -5 -5 -6 -6 -7 -7 -6 -4 -7 -8 -9 -10 -11 -13 -13 -13 -12 -12 -13 -13 -14 -14 -14 -13 -14 -14 -14 -14 -15 -16 -16 -15 -15 -14
-4 -4 -5 -5 -5 -6 -7 -7 -8 -8 -8 -7 -7 -9 -10 -11 -12 -12 -12 -13 -13 -13 -13 -14 -14 -13 -14 -14 -14 -14 -14 -14 -15 -15 -16 -16 -15 -15
-4 -5 -5 -6 -6 -7 -8 -8 -8 -9 -10 -10 -10 -10 -11 -12 -12 -13 -13 -13 -13 -13 -14 -14 -14 -14 -14 -14 -14 -14 -15 -15 -15 -15 -15 -15 -14 -15
-5 -6 -6 -7 -8 -8 -8 -8 -9 -10 -11 -12 -13 -12 -12 -13 -14 -13 -13 -13 -13 -13 -13 -13 -14 -14 -14 -14 -15 -15 -15 -15 -15 -14 -14 -14 -14 -13
-6 -7 -7 -8 -8 -9 -9 -10 -11 -12 -13 -13 -14 -14 -14 -14 -14 -13 -13 -13 -12 -13 -13 -12 -13 -13 -13 -14 -14 -14 -15 -15 -15 -14 -14 -14 -14 -14
-7 -8 -8 -9 -9 -9 -10 -12 -13 -13 -13 -14 -14 -14 -15 -15 -14 -14 -13 -13 -11 -13 -14 -11 -14 -13 -14 -14 -14 -15 -14 -14 -14 -14 -14 -14 -14 -14
-8 -8 -9 -9 -10 -11 -12 -12 -12 -13 -15 -15 -15 -15 -15 -15 -14 -13 -13 -14 -13 -13 -15 -12 -13 -13 -14 -14 -15 -14 -14 -13 -13 -13 -13 -14 -14 -14
-9 -9 -9 -10 -11 -11 -12 -12 -13 -14 -15 -15 -15 -15 -15 -15 -15 -15 -15 -14 -13 -13 -15 -12 -13 -13 -13 -14 -14 -14 -13 -13 -13 -12 -12 -12 -12 -12
-9 -10 -10 -11 -12 -12 -13 -13 -13 -14 -14 -15 -15 -15 -15 -15 -16 -16 -15 -15 -14 -13 -15 -13 -13 -12 -12 -13 -12 -12 -12 -12 -12 -12 -12 -12 -12 -12
-10 -10 -12 -12 -13 -13 -14 -14 -13 -14 -14 -13 -14 -14 -15 -16 -16 -17 -16 -15 -15 -12 -15 -13 -13 -13 -9 -12 -12 -12 -11 -12 -11 -12 -12 -12 -12 -12
-11 -12 -12 -13 -13 -14 -14 -14 -14 -14 -14 -14 -14 -14 -15 -15 -16 -16 -16 -16 -15 -15 -15 -14 -13 -13 -13 -11 -11 -12 -12 -11 -11 -11 -12 -12 -12 -12
-12 -12 -13 -13 -14 -14 -15 -15 -15 -14 -14 -14 -14 -15 -14 -15 -16 -16 -16 -16 -16 -16 -15 -14 -13 -13 -13 -12 -12 -11 -11 -12 -11 -11 -11 -11 -11 -11
-13 -13 -14 -14 -14 -14 -15 -15 -15 -15 -14 -14 -14 -15 -15 -15 -15 -15 -15 -15 -15 -15 -15 -14 -14 -13 -13 -13 -13 -12 -12 -11 -11 -11 -10 -9 -10 -10
-13 -14 -14 -15 -15 -15 -15 -16 -15 -15 -15 -15 -15 -15 -15 -15 -15 -15 -15 -14 -14 -14 -15 -14 -14 -13 -13 -13 -13 -12 -12 -11 -11 -11 -10 -9 -9 -10
-14 -14 -15 -15 -15 -15 -15 -16 -15 -15 -15 -15 -15 -15 -15 -15 -15 -15 -15 -14 -14 -14 -13 -14 -14 -14 -14 -14 -13 -12 -11 -11 -12 -10 -9 -10 -9 -10
-14 -15 -15 -15 -15 -15 -15 -15 -16 -16 -16 -16 -16 -16 -15 -15 -15 -15 -15 -15 -15 -14 -14 -13 -13 -13 -13 -13 -12 -11 -11 -11 -11 -10 -10 -9 -9 -9
-15 -15 -15 -15 -15 -15 -15 -15 -16 -16 -16 -16 -16 -16 -15 -15 -15 -15 -15 -15 -15 -15 -14 -14 -13 -13 -13 -12 -12 -13 -12 -11 -11 -10 -10 -9 -9 -10
-15 -15 -15 -15 -15 -15 -16 -16 -16 -16 -16 -16 -16 -16 -15 -15 -14 -14 -15 -15 -15 -15 -15 -14 -14 -14 -13 -13 -13 -13 -13 -11 -11 -10 -10 -10 -10 -9
-15 -15 -15 -15 -15 -15 -15 -16 -16 -16 -16 -15 -15 -15 -15 -15 -14 -14 -15 -15 -15 -15 -14 -14 -14 -14 -14 -14 -13 -13 -13 -12 -12 -11 -10 -10 -10 -8
-15 -15 -15 -15 -15 -15 -15 -15 -16 -16 -15 -15 -15 -15 -15 -15 -14 -14 -15 -15 -15 -15 -15 -14 -14 -14 -14 -14 -14 -13 -12 -12 -12 -11 -10 -9 -9 -10
-15 -15 -15 -15 -15 -15 -15 -15 -15 -15 -15 -15 -15 -15 -15 -14 -14 -15 -15 -15 -15 -15 -14 -14 -14 -14 -14 -14 -13 -13 -13 -12 -11 -11 -11 -10 -9 -9
Height
3034 3029 3023 3017 3012 3005 2999 2992 2983 2972 2968 2961 2954 2945 2937 2928 2921 2910 2902 2896 2890 2884 2879 2875 2871 2868 2863 2860 2857 2853 2852 2849 2846 2845 2846 2847 2851 2854
3025 3019 3013 3007 3002 2995 2988 2981 2974 2965 2952 2951 2942 2931 2921 2912 2904 2896 2889 2882 2878 2872 2866 2858 2853 2849 2845 2841 2838 2835 2833 2830 2828 2828 2828 2830 2832 2834
3015 3010 3004 2997 2991 2984 2977 2969 2961 2952 2941 2939 2926 2919 2908 2898 2891 2883 2875 2869 2865 2861 2853 2849 2842 2835 2830 2827 2823 2820 2816 2814 2812 2812 2812 2813 2815 2816
3006 3000 2994 2987 2980 2973 2964 2956 2948 2939 2928 2917 2915 2904 2895 2887 2879 2872 2864 2860 2853 2846 2842 2836 2828 2824 2819 2814 2809 2805 2801 2798 2796 2795 2795 2796 2797 2798
2996 2989 2982 2975 2968 2960 2951 2943 2934 2925 2916 2903 2896 2891 2884 2876 2867 2860 2853 2849 2842 2837 2834 2826 2819 2814 2808 2801 2796 2791 2787 2783 2780 2778 2777 2778 2779 2781
2986 2979 2971 2963 2955 2947 2938 2928 2918 2911 2903 2893 2884 2877 2872 2866 2858 2848 2842 2840 2831 2829 2826 2815 2810 2804 2797 2791 2785 2779 2773 2768 2764 2763 2762 2762 2762 2764
2976 2968 2960 2952 2944 2934 2924 2915 2907 2900 2893 2883 2874 2868 2863 2856 2849 2841 2834 2829 2825 2816 2813 2807 2799 2794 2787 2780 2773 2767 2761 2756 2752 2750 2748 2747 2747 2748
2964 2957 2949 2940 2931 2923 2913 2905 2897 2890 2884 2875 2866 2860 2853 2847 2841 2834 2826 2819 2812 2811 2797 2797 2789 2783 2776 2769 2762 2754 2748 2744 2740 2738 2735 2734 2733 2733
2954 2945 2936 2927 2918 2911 2904 2896 2890 2884 2876 2866 2857 2854 2845 2841 2833 2827 2821 2812 2805 2799 2789 2784 2781 2773 2766 2758 2749 2743 2738 2734 2730 2727 2724 2722 2720 2720
2943 2934 2925 2916 2908 2900 2893 2886 2881 2875 2866 2860 2853 2846 2840 2833 2827 2819 2812 2802 2799 2794 2784 2773 2772 2764 2758 2751 2745 2739 2734 2729 2723 2719 2715 2712 2710 2709
2932 2923 2914 2905 2898 2890 2882 2875 2870 2864 2858 2852 2847 2841 2835 2828 2819 2811 2806 2797 2791 2788 2782 2770 2766 2755 2752 2748 2743 2737 2731 2724 2718 2713 2708 2704 2700 2698
2921 2912 2904 2896 2889 2882 2873 2865 2859 2854 2850 2846 2841 2835 2829 2823 2816 2808 2801 2793 2784 2779 2777 2765 2760 2751 2745 2744 2738 2733 2727 2721 2713 2705 2700 2695 2690 2685
2908 2902 2895 2887 2879 2872 2865 2858 2852 2846 2843 2839 2835 2829 2823 2816 2810 2804 2797 2789 2782 2776 2770 2761 2756 2751 2744 2734 2734 2728 2721 2713 2705 2698 2690 2683 2678 2673
2900 2894 2886 2878 2871 2864 2857 2852 2846 2841 2837 2833 2828 2823 2816 2810 2805 2799 2793 2787 2780 2771 2766 2760 2753 2747 2741 2735 2727 2723 2717 2708 2696 2686 2678 2672 2666 2659
2891 2885 2877 2870 2863 2858 2851 2846 2841 2836 2832 2827 2822 2816 2809 2804 2798 2792 2789 2782 2777 2769 2763 2757 2751 2746 2739 2732 2724 2718 2707 2700 2690 2677 2669 2662 2654 2649
2883 2876 2868 2862 2856 2851 2846 2841 2836 2831 2826 2821 2815 2809 2803 2798 2794 2787 2781 2775 2770 2766 2760 2753 2748 2743 2737 2732 2724 2716 2708 2694 2683 2672 2664 2656 2648 2640
2873 2868 2862 2857 2852 2847 2842 2838 2833 2827 2823 2817 2811 2805 2799 2793 2789 2783 2776 2770 2764 2758 2756 2751 2746 2741 2736 2728 2723 2715 2704 2694 2682 2671 2663 2655 2646 2636
2867 2861 2856 2851 2846 2842 2838 2834 2828 2823 2818 2812 2807 2800 2794 2789 2783 2778 2772 2765 2760 2755 2750 2746 2742 2739 2735 2731 2719 2711 2703 2693 2682 2673 2665 2657 2648 2637
2862 2856 2851 2846 2842 2838 2833 2828 2824 2819 2813 2808 2803 2797 2791 2785 2779 2774 2768 2762 2758 2752 2747 2742 2738 2733 2729 2724 2720 2710 2701 2693 2684 2675 2667 2659 2651 2645
2856 2852 2848 2843 2839 2834 2830 2825 2820 2815 2811 2806 2800 2793 2787 2782 2777 2771 2765 2759 2754 2749 2745 2740 2736 2732 2727 2720 2714 2711 2703 2694 2686 2678 2672 2665 2658 2652
2853 2849 2844 2840 2836 2831 2827 2822 2817 2813 2807 2802 2797 2791 2785 2780 2775 2769 2763 2758 2752 2747 2742 2738 2734 2730 2726 2722 2718 2712 2705 2697 2690 2682 2676 2671 2664 2659
2850 2846 2842 2837 2833 2829 2824 2820 2815 2810 2805 2799 2794 2788 2783 2778 2772 2767 2761 2756 2751 2746 2741 2736 2733 2729 2725 2721 2717 2711 2706 2700 2693 2686 2681 2676 2669 2665
2849 2844 2840 2836 2831 2827 2822 2818 2813 2808 2802 2796 2791 2786 2781 2776 2771 2766 2760 2755 2750 2745 2740 2737 2733 2729 2725 2721 2717 2712 2708 2702 2696 2690 2685 2680 2676 2673
Wind_Speed
42 41 41 43 44 46 49 52 56 64 67 67 67 69 68 67 66 66 64 60 57 54 53 53 51 50 50 51 51 45 42 48 54 63 62 60 47 51
42 42 43 45 46 48 50 53 55 58 69 66 68 67 66 65 62 59 55 52 50 50 48 48 47 46 43 44 47 49 52 54 56 50 46 46 49 52
43 44 45 47 48 49 51 53 56 59 66 69 66 64 62 60 55 50 49 47 45 38 37 37 37 39 41 41 42 43 44 45 44 41 41 42 43 44
43 45 46 48 49 50 53 55 58 59 62 66 62 59 56 51 48 45 43 40 38 39 37 33 35 36 38 41 42 42 43 45 45 45 43 42 42 47
45 47 48 50 51 53 55 58 59 58 57 58 57 53 50 45 44 42 43 40 38 35 31 33 36 34 36 38 40 41 42 42 45 45 47 48 47 44
46 48 50 51 53 55 57 59 58 56 52 51 51 49 46 42 41 44 43 34 37 35 28 33 32 32 34 35 36 37 38 40 41 42 42 43 45 47
47 48 49 51 53 56 56 55 52 49 47 46 47 47 41 40 41 39 39 38 34 39 33 32 36 34 34 33 35 36 37 39 39 38 39 40 42 43
49 49 51 53 55 54 52 48 46 44 40 42 45 41 39 39 35 38 40 41 40 38 43 33 37 35 37 34 34 35 36 38 39 39 39 38 39 41
50 51 53 55 54 51 47 45 42 36 36 39 39 36 37 34 37 38 38 42 42 42 43 38 35 36 34 30 28 32 34 34 33 31 29 30 31 34
51 52 54 52 49 47 45 43 38 35 33 32 31 31 32 34 36 40 42 44 40 36 36 41 38 35 25 16 19 24 27 28 27 27 25 25 24 26
52 51 50 48 45 43 41 40 37 32 29 29 26 28 30 32 37 40 38 41 40 32 29 39 34 32 15 10 15 20 24 26 28 30 29 29 29 30
52 49 45 43 41 38 38 38 36 31 28 23 24 27 31 32 32 31 33 36 38 33 32 38 33 29 12 18 22 24 24 27 27 27 28 28 30 34
50 44 41 40 37 36 35 34 32 31 26 26 26 29 31 31 25 26 28 31 34 33 33 36 32 24 25 28 22 27 32 35 33 28 27 27 29 31
44 41 40 38 36 33 33 30 29 27 27 27 29 31 31 26 23 25 26 28 29 32 31 29 28 25 25 25 29 30 33 37 41 36 27 23 24 28
43 40 36 35 33 31 29 28 26 27 27 29 31 31 30 24 24 26 26 28 25 26 26 25 23 23 23 25 33 35 41 42 42 38 26 21 21 23
42 38 36 34 32 29 26 25 26 27 29 31 32 31 27 23 23 28 30 29 26 19 20 21 19 21 22 23 30 36 37 43 46 36 24 22 25 25
41 37 34 30 27 24 21 22 23 26 27 28 28 26 24 23 24 27 28 27 27 25 18 15 16 18 21 28 30 32 35 39 43 29 21 25 19 15
37 34 29 28 25 22 22 21 24 26 27 25 24 26 27 27 27 26 28 27 26 23 23 18 15 14 17 17 28 31 33 37 38 23 19 25 15 17
31 27 26 24 22 22 23 25 25 24 23 24 27 29 29 28 28 27 27 26 24 22 21 19 19 21 22 23 23 28 32 34 33 20 21 27 18 17
24 23 22 21 21 23 24 23 22 21 23 26 27 29 28 27 26 26 26 26 25 22 20 18 17 17 21 25 28 24 28 30 32 23 19 22 20 17
21 20 20 21 22 23 23 21 21 23 25 27 26 27 26 26 24 25 25 25 25 23 20 17 16 16 16 19 20 20 22 26 28 28 22 18 18 18
18 18 20 21 21 22 20 19 20 22 23 24 24 24 24 24 24 25 24 25 23 21 19 19 17 16 14 16 19 19 19 22 22 25 26 21 25 27
17 18 18 19 20 21 20 20 22 23 23 23 23 23 23 23 24 24 23 23 23 21 19 16 16 16 15 15 16 16 18 20 19 21 23 22 21 20
Wind_Direction
314 313 313 312 313 312 312 312 312 312 311 313 314 314 312 309 308 306 305 304 304 304 302 300 294 287 282 279 276 274 271 262 260 262 260 258 259 254
313 314 313 313 313 313 312 312 311 311 309 313 312 312 311 309 307 305 305 305 304 303 301 295 293 294 288 280 277 274 272 270 270 274 270 265 266 258
314 314 314 314 314 313 312 311 312 311 310 311 311 311 309 307 308 309 307 305 306 306 302 305 300 291 291 289 284 282 278 275 272 272 267 261 256 253
314 314 314 313 313 313 313 313 313 313 312 311 311 310 308 310 310 306 306 312 313 310 315 312 302 301 299 297 293 289 285 279 273 268 267 264 256 252
314 314 314 314 315 315 315 314 314 313 313 311 313 311 310 314 312 313 313 318 314 315 318 305 301 304 300 296 294 290 287 284 278 272 267 264 261 259
315 315 315 316 317 316 316 316 315 316 315 313 310 311 318 318 314 314 315 319 314 314 320 310 314 309 302 299 296 294 290 285 281 278 274 268 262 259
315 315 317 317 317 318 318 315 314 314 315 311 310 313 317 315 317 316 316 315 317 320 322 317 316 316 315 308 299 293 289 286 284 281 277 273 267 262
316 318 319 319 318 317 316 313 313 314 313 310 309 316 316 317 316 315 316 319 320 325 322 324 320 322 319 312 306 294 286 283 283 282 280 276 270 265
319 320 319 319 318 316 313 311 311 314 313 308 312 317 314 315 314 317 318 317 323 329 322 323 327 326 324 321 304 297 296 300 303 300 295 286 278 269
320 321 320 318 317 315 313 312 314 315 310 312 313 315 315 317 317 316 320 320 326 327 325 322 335 332 339 336 316 311 314 314 310 307 303 299 291 279
322 321 319 318 317 316 313 313 316 318 316 316 314 315 316 318 318 318 320 318 323 328 329 324 341 335 3 353 337 333 333 325 314 309 304 302 297 288
321 322 320 317 316 315 315 317 319 319 319 316 321 320 320 321 315 312 319 321 325 328 335 330 342 338 349 8 2 355 353 343 327 309 298 292 293 286
323 322 319 317 318 319 319 319 318 319 321 322 323 325 321 318 314 318 323 326 327 326 330 328 340 338 338 339 356 354 350 346 341 329 315 301 290 285
320 321 320 320 321 321 320 318 318 318 321 325 325 324 321 319 316 322 326 324 327 324 327 326 332 332 335 338 343 343 343 345 341 337 327 309 297 290
320 323 321 322 322 322 320 320 321 322 323 322 324 326 324 319 319 321 324 322 327 325 323 323 324 328 333 339 334 339 339 344 346 344 339 326 318 309
322 325 326 326 325 325 324 322 320 321 323 326 327 327 326 324 324 322 325 326 328 331 324 321 321 322 329 333 332 336 342 349 349 350 353 343 326 316
325 324 324 324 327 327 326 323 321 321 323 325 326 329 331 330 330 326 327 330 332 331 330 321 312 322 325 325 331 339 347 356 356 360 5 347 337 353
323 323 325 329 330 330 329 327 325 324 326 328 332 334 333 332 332 335 333 332 333 332 330 324 315 314 323 327 337 346 355 2 5 9 3 3 7 33
324 327 328 331 332 331 330 330 331 332 336 336 334 332 332 337 336 336 337 338 340 335 332 329 332 335 338 343 359 355 355 8 15 11 11 7 20 33
330 329 332 334 333 333 334 336 338 339 337 336 334 335 335 336 339 339 341 342 345 343 343 331 328 338 344 351 355 358 0 8 16 25 19 10 22 23
335 335 337 337 337 339 341 342 343 341 339 340 338 337 339 340 341 340 342 345 347 345 342 340 339 336 338 343 341 351 8 10 12 27 34 32 44 44
342 342 341 340 341 342 346 346 345 343 343 342 341 340 341 342 342 342 343 345 350 347 349 344 348 347 339 338 344 352 7 15 16 24 40 50 58 62
348 346 343 341 344 346 346 346 345 346 345 346 345 344 346 347 346 344 344 343 347 349 350 350 352 354 351 343 345 356 9 15 29 29 36 43 58 67